Flag for Poland Weather past 2 weeks in Opole, Poland

Now
64 °F

Fog.


Feels Like: 64 °F
Forecast: 51 / 60 °F
Wind: 9 mph from Northwest

Location: Wroclaw Ii

Current Time: Sep 21, 2014 at 8:46:00 AM

Latest Report: Sep 21, 2014 at 8:00 AM


Visibility: 3 mi

Pressure: 29.86 "Hg

Humidity: 88%

Dew point: 61 °F

Location of OpoleLocation

Historic Weather in Opole — Graph

°F

Opole temperature yesterday

Maximum temperature yesterday: 75 °F (at 1:30 PM)
Minimum temperature yesterday: 61 °F (at 12:00 AM)
Average temperature yesterday: 66 °F

Past Weeks' High & Low Weather Summary

 TemperatureHumidityPressure
High82 °F (Sep 7, 3:00 PM)94% (Sep 6, 8:00 AM)30.15 "Hg (Sep 6, 8:00 AM)
Low52 °F (Sep 18, 5:30 AM)42% (Sep 7, 4:30 PM)29.86 "Hg (Sep 21, 4:30 AM)
Average65 °F80%30.02 "Hg
* Reported Sep 6 8:00 AM — Sep 21 8:00 AM, Opole, Weather by CustomWeather, © 2014

Note: Actual official high and low records may vary slightly from our data, if they occured in-between our weather recording intervals... More about our weather records

Advertising

Opole weather history for previous 24 hours

 ConditionsComfort  
Time TempWeatherWind HumidityBarometerVisibility
8:00 AM
Sep 21
64 °FFog.9 mph88%29.86 "Hg3 mi
7:30 AM64 °FFog.6 mph88%29.86 "Hg3 mi
7:00 AM64 °FOvercast.8 mph88%29.86 "Hg5 mi
6:30 AM64 °FOvercast.8 mph88%29.86 "HgN/A
6:00 AM64 °FOvercast.7 mph88%29.86 "HgN/A
5:30 AM63 °FPassing clouds.3 mph88%29.86 "HgN/A
5:00 AM63 °FPassing clouds.6 mph88%29.86 "HgN/A
4:30 AM63 °FSprinkles. Passing clouds.8 mph94%29.86 "HgN/A
4:00 AM64 °FPartly cloudy.6 mph88%29.89 "HgN/A
3:30 AM64 °FSprinkles. Passing clouds.6 mph88%29.89 "Hg5 mi
3:00 AM64 °FSprinkles. Passing clouds.7 mph88%29.89 "HgN/A
2:30 AM64 °FPassing clouds.5 mph88%29.89 "HgN/A
2:00 AM64 °FPassing clouds.5 mph88%29.89 "HgN/A
1:30 AM64 °FPassing clouds.6 mph88%29.89 "HgN/A
1:00 AM64 °FPassing clouds.2 mph88%29.89 "HgN/A
12:30 AM64 °FPassing clouds.3 mph88%29.89 "HgN/A
12:00 AM64 °FPassing clouds.2 mph88%29.89 "HgN/A
11:30 PM
Sep 20
64 °FPassing clouds.2 mph88%29.89 "HgN/A
11:00 PM64 °FPartly cloudy.No wind88%29.89 "HgN/A
10:30 PM64 °FPassing clouds.1 mph88%29.89 "HgN/A
10:00 PM66 °FPassing clouds.2 mph88%29.89 "HgN/A
9:30 PM66 °FPassing clouds.5 mph88%29.92 "HgN/A
9:00 PM66 °FPassing clouds.3 mph88%29.92 "HgN/A
8:30 PM66 °FPassing clouds.3 mph88%29.92 "HgN/A
8:00 PM66 °FPassing clouds.1 mph88%29.92 "HgN/A
3:30 PM75 °FPassing clouds.3 mph61%29.92 "HgN/A
3:00 PM75 °FScattered clouds.5 mph61%29.92 "HgN/A
2:30 PM75 °FScattered clouds.6 mph61%29.92 "HgN/A
2:00 PM75 °FScattered clouds.5 mph57%29.95 "HgN/A
1:30 PM75 °FPassing clouds.3 mph61%29.95 "HgN/A
1:00 PM73 °FPassing clouds.3 mph69%29.95 "HgN/A
12:30 PM72 °FPassing clouds.3 mph73%29.95 "HgN/A
12:00 PM70 °FPassing clouds.5 mph78%29.95 "HgN/A
11:30 AM70 °FPassing clouds.6 mph78%29.95 "HgN/A
11:00 AM68 °FPassing clouds.9 mph83%29.95 "HgN/A
10:30 AM68 °FPassing clouds.10 mph83%29.95 "HgN/A
10:00 AM68 °FPassing clouds.5 mph83%29.95 "HgN/A
9:30 AM66 °FPassing clouds.5 mph88%29.95 "HgN/A
9:00 AM66 °FPassing clouds.5 mph88%29.95 "HgN/A
8:30 AM64 °FPassing clouds.5 mph88%29.95 "HgN/A
8:00 AM63 °FFog.2 mph94%29.95 "Hg3 mi
Weather by CustomWeather, © 2014

See weather overviewHow to use our weather pages